Torna al catalogo

BREEZE-M DEB

AttivoHEO
NORAD 32494·DEBRIS·🇷🇺 Russia

Lanciato Feb 28, 2006 da Baikonur Cosmodrome

Loading…

Prossimi Passaggi (prossime 24 ore)

TLE

AggiornatoSource: Space-Track

Epoca: Sep 13, 2026, 21:01 UTC

1 32494U 06006AH  26256.87621035  .00001108  00000-0  13484-2 0  9999
2 32494  51.6291  73.8475 5078128  99.3626 319.1671  5.29942888374601

Traccia BREEZE-M DEB in tempo reale con AllMySat

Download on the App Store